Home > Weather > Fort Collins > Past weeks

Flag for USA Past Weather in Fort Collins, Colorado, USA — Yesterday and Last 2 Weeks

Now
70 °F

Sunny.


Feels Like: 70 °F
Forecast: 50 / 81 °F
Wind: 6 mph from Southeast

Location: Fort Collins-Loveland Municipal Airport

Current Time: Aug 27, 2016 at 11:16:43 AM

Latest Report: Aug 27, 2016 at 10:35 AM


Visibility: 10 mi

Pressure: 30.12 "Hg (25.24 "Hg at 1522m altitude)

Humidity: 46%

Dew Point: 48 °F

Location of Fort CollinsLocation

Past Weather in Fort Collins — Graph

°F

Fort Collins Temperature Yesterday

Maximum temperature yesterday: 79 °F (at 4:35 PM)
Minimum temperature yesterday: 50 °F (at 5:15 AM)
Average temperature yesterday: 62 °F

High & Low Weather Summary for the Past Weeks

 TemperatureHumidityPressure
High91 °F (Aug 14, 3:35 PM)100% (Aug 25, 3:35 AM)30.31 "Hg (Aug 25, 3:35 AM)
Low46 °F (Aug 25, 6:35 AM)13% (Aug 14, 3:55 PM)29.89 "Hg (Aug 22, 3:15 PM)
Average68 °F50%30.13 "Hg
* Reported Aug 12 10:15 AM — Aug 27 10:15 AM, Fort Collins, Weather by CustomWeather, © 2016

Note: Actual official high and low records may vary slightly from our data, if they occured in-between our weather recording intervals... More about our weather records

Advertising

Fort Collins Weather History for the Previous 24 Hours

Scroll right to see more
 ConditionsComfort  
Time TempWeatherWind HumidityBarometerVisibility
10:15 AM
Sat, Aug 27
64 °FSunny.7 mph64%30.13 "Hg10 mi
9:55 AM64 °FSunny.6 mph64%30.14 "Hg10 mi
9:35 AM63 °FSunny.6 mph64%30.13 "Hg10 mi
9:15 AM61 °FSunny.3 mph68%30.13 "Hg10 mi
8:55 AM57 °FSunny.No wind82%30.13 "Hg10 mi
8:35 AM55 °FSunny.3 mph88%30.13 "Hg10 mi
8:15 AM54 °FSunny.6 mph94%30.13 "Hg10 mi
7:55 AM52 °FSunny.6 mph94%30.13 "Hg10 mi
7:35 AM52 °FSunny.6 mph88%30.13 "Hg10 mi
7:15 AM48 °FClear.3 mph94%30.13 "Hg9 mi
6:55 AM48 °FClear.6 mph94%30.13 "Hg5 mi
6:35 AM50 °FClear.No wind88%30.13 "Hg10 mi
6:15 AM50 °FClear.3 mph94%30.12 "Hg10 mi
5:55 AM52 °FClear.3 mph88%30.12 "Hg10 mi
5:35 AM52 °FClear.3 mph88%30.11 "Hg10 mi
5:15 AM52 °FClear.No wind88%30.11 "Hg10 mi
4:55 AM52 °FClear.3 mph88%30.10 "Hg10 mi
4:35 AM50 °FClear.5 mph94%30.10 "Hg10 mi
4:15 AM50 °FClear.5 mph88%30.10 "Hg10 mi
3:55 AM50 °FClear.6 mph88%30.11 "Hg10 mi
3:35 AM52 °FClear.5 mph88%30.10 "Hg10 mi
3:15 AM50 °FClear.No wind88%30.10 "Hg10 mi
2:55 AM52 °FClear.No wind88%30.11 "Hg10 mi
2:35 AM54 °FClear.No wind82%30.10 "Hg10 mi
2:15 AM54 °FClear.No wind82%30.11 "Hg10 mi
1:55 AM52 °FClear.No wind88%30.10 "Hg10 mi
1:35 AM50 °FClear.3 mph88%30.10 "Hg10 mi
1:15 AM54 °FClear.No wind82%30.11 "Hg10 mi
12:55 AM52 °FClear.No wind82%30.11 "Hg10 mi
12:35 AM55 °FClear.No wind77%30.11 "Hg10 mi
12:15 AM57 °FClear.6 mph72%30.12 "Hg10 mi
11:55 PM
Fri, Aug 26
57 °FClear.6 mph72%30.13 "Hg10 mi
11:35 PM57 °FClear.6 mph72%30.13 "Hg10 mi
11:15 PM57 °FClear.6 mph67%30.14 "Hg10 mi
10:55 PM59 °FClear.3 mph68%30.14 "Hg10 mi
10:35 PM59 °FClear.No wind68%30.14 "Hg10 mi
10:15 PM57 °FClear.No wind72%30.14 "Hg10 mi
9:55 PM59 °FClear.No wind63%30.13 "Hg10 mi
9:35 PM57 °FClear.3 mph67%30.14 "Hg10 mi
9:15 PM59 °FClear.No wind63%30.14 "Hg10 mi
8:55 PM59 °FClear.6 mph63%30.13 "Hg10 mi
8:35 PM61 °FSunny.5 mph59%30.11 "Hg10 mi
8:15 PM61 °FSunny.9 mph59%30.10 "Hg10 mi
7:55 PM63 °FSunny.8 mph56%30.08 "Hg10 mi
7:35 PM64 °FSunny.12 mph52%30.07 "Hg10 mi
7:15 PM66 °FThundershowers. Sunny.13 mph52%30.06 "Hg10 mi
6:55 PM66 °FThundershowers. Passing clouds.15 mph60%30.04 "Hg10 mi
6:35 PM70 °FPartly sunny.18 mph53%30.03 "Hg10 mi
6:15 PM75 °FPartly sunny.16 mph36%30.02 "Hg10 mi
5:55 PM79 °FScattered clouds.5 mph26%30.01 "Hg10 mi
5:35 PM79 °FPassing clouds.8 mph28%30.01 "Hg10 mi
5:15 PM79 °FSunny.8 mph28%30.01 "Hg10 mi
4:55 PM79 °FSunny.13 mph28%30.00 "Hg10 mi
4:35 PM79 °FSunny.10 mph24%30.01 "Hg10 mi
4:15 PM77 °FSunny.8 mph28%30.02 "Hg10 mi
3:55 PM77 °FSunny.10 mph30%30.02 "Hg10 mi
3:35 PM75 °FSunny.10 mph34%30.03 "Hg7 mi
3:15 PM70 °FSunny.8 mph53%30.05 "Hg10 mi
2:55 PM66 °FThundershowers. Scattered clouds.7 mph64%30.06 "Hg8 mi
2:35 PM72 °FThundershowers. Passing clouds.8 mph38%30.08 "Hg10 mi
2:15 PM73 °FSunny.7 mph36%30.06 "Hg10 mi
1:55 PM75 °FSunny.10 mph36%30.05 "Hg10 mi
1:35 PM73 °FSunny.12 mph36%30.07 "Hg7 mi
1:15 PM73 °FSunny.9 mph38%30.08 "Hg9 mi
12:55 PM73 °FSunny.6 mph41%30.09 "Hg3 mi
12:35 PM73 °FSunny.9 mph41%30.10 "Hg5 mi
12:15 PM72 °FSunny.8 mph41%30.11 "Hg9 mi
11:55 AM72 °FSunny.7 mph44%30.12 "Hg8 mi
11:35 AM70 °FSunny.6 mph46%30.12 "Hg10 mi
11:15 AM68 °FSunny.5 mph49%30.13 "Hg10 mi
Weather by CustomWeather, © 2016

See weather overviewHow to use our weather pages